Total_Precipitation_Accumulation
0.22 0.41 0.96 1.56 2.62 2.92 2.23 1.39 1.00 0.89 0.91 0.89 0.81 0.86 0.96 1.23 1.77 2.84 2.84 2.41 1.84 1.87 2.40 2.58 2.84 2.70 2.57 2.46 2.50 2.66 2.70 2.49 2.31 2.29 2.36 2.38 2.42 2.30 2.32 2.42 2.46 2.49 2.45 2.55 2.75 2.70 2.79 2.84 2.82
0.39 0.76 1.43 2.38 3.10 2.58 2.02 1.26 0.78 0.70 0.74 0.88 0.89 0.81 0.73 0.85 1.01 1.56 2.23 2.32 1.58 1.48 1.84 1.96 2.32 2.36 2.38 2.27 2.36 2.51 2.45 2.27 2.19 2.10 2.24 2.34 2.38 2.38 2.37 2.47 2.57 2.60 2.55 2.63 2.74 2.71 2.77 2.82 2.81
0.62 0.97 1.71 2.67 2.25 1.82 1.65 1.10 0.69 0.49 0.64 0.92 0.95 0.71 0.81 1.14 1.21 1.62 1.96 1.83 1.45 1.40 1.55 1.84 2.13 2.16 2.18 2.11 2.14 2.22 2.13 2.05 2.06 2.07 2.16 2.26 2.38 2.46 2.48 2.50 2.64 2.86 2.93 2.89 2.83 2.86 2.87 2.82 2.71
0.88 1.26 1.87 2.08 1.40 0.95 0.91 0.86 0.69 0.62 0.78 0.92 0.82 0.76 0.97 1.34 1.34 1.46 1.45 1.38 1.21 1.44 1.58 1.83 2.19 2.14 2.10 2.04 1.99 1.94 1.93 1.94 1.96 2.03 2.21 2.31 2.39 2.43 2.46 2.54 2.71 3.02 3.06 2.83 2.86 2.95 2.90 2.90 2.86
1.07 1.65 2.26 1.72 1.16 0.78 0.58 0.58 0.60 0.73 0.85 0.95 0.83 0.89 1.34 1.50 1.20 1.11 1.08 1.25 1.32 1.58 1.82 2.00 2.28 2.30 2.27 2.14 1.98 1.86 1.77 1.85 1.89 1.95 2.15 2.28 2.31 2.26 2.32 2.50 2.56 2.60 2.72 2.85 2.93 2.91 2.84 2.92 2.91
1.39 1.74 1.90 1.36 0.89 0.63 0.51 0.51 0.62 0.78 0.78 0.83 0.94 1.12 1.74 1.70 1.29 1.15 1.13 1.31 1.48 1.63 1.89 2.24 2.49 2.62 2.55 2.31 2.05 1.88 1.79 1.73 1.77 1.86 1.92 2.05 2.15 2.21 2.38 2.50 2.36 2.25 2.41 2.75 2.93 2.91 2.92 2.93 2.92
1.45 1.69 1.55 1.03 0.75 0.62 0.56 0.53 0.56 0.69 0.77 0.97 0.99 1.17 1.79 1.97 1.48 1.17 1.31 1.65 1.82 1.83 1.79 2.15 2.51 2.65 2.71 2.51 2.12 1.98 1.88 1.72 1.71 1.72 1.78 1.87 2.03 2.13 2.29 2.44 2.39 2.25 2.30 2.61 2.88 2.92 3.11 2.97 2.74
0.97 1.14 1.18 0.87 0.68 0.58 0.47 0.46 0.55 0.70 0.80 0.86 0.98 1.20 1.55 1.63 1.37 1.31 1.60 2.12 2.39 2.31 2.04 1.82 2.00 2.42 2.62 2.43 2.29 2.22 1.93 1.66 1.66 1.75 1.93 2.15 2.28 2.33 2.41 2.41 2.61 2.42 2.32 2.54 2.83 2.90 2.95 2.85 2.85
0.68 0.96 1.06 0.75 0.54 0.47 0.44 0.46 0.49 0.54 0.63 0.86 1.09 1.29 1.29 1.13 1.16 1.41 1.79 2.25 2.56 2.41 2.28 1.99 1.89 2.09 2.29 2.13 1.96 2.18 1.97 1.79 1.95 2.26 2.45 2.62 2.68 2.46 2.55 2.47 2.94 2.84 2.76 2.95 3.08 3.14 3.23 3.31 3.37
0.60 0.81 0.68 0.45 0.36 0.39 0.39 0.40 0.41 0.62 0.90 1.32 1.58 1.49 1.29 1.16 1.29 1.58 1.88 2.04 2.16 2.21 2.18 2.21 2.00 2.02 2.07 1.91 2.14 2.62 2.31 2.31 2.61 2.79 2.70 3.27 3.47 3.22 2.58 2.70 3.29 3.43 3.46 3.55 3.54 3.71 3.67 3.57 3.58
0.44 0.45 0.36 0.29 0.23 0.29 0.35 0.35 0.41 0.64 1.17 1.62 1.83 1.53 1.34 1.35 1.49 1.64 2.05 2.22 2.32 2.33 2.20 2.28 2.15 2.12 2.29 2.49 2.50 2.74 2.85 3.05 3.22 3.24 3.28 3.66 3.49 3.10 2.81 3.07 3.52 3.65 3.61 3.61 3.72 3.90 3.52 3.52 3.73
0.23 0.18 0.18 0.19 0.19 0.22 0.24 0.31 0.50 0.75 1.17 1.43 1.35 1.18 1.17 1.46 1.68 1.89 2.23 2.56 2.67 2.77 2.72 2.51 2.38 2.62 2.81 2.78 2.71 2.57 2.40 2.51 2.80 2.96 2.91 3.44 3.90 3.76 3.61 3.74 3.69 3.89 4.05 4.31 3.97 3.94 3.79 3.80 3.73
0.19 0.17 0.16 0.16 0.17 0.21 0.22 0.31 0.50 0.81 1.02 1.05 0.92 0.96 1.24 1.60 1.87 2.36 2.85 2.92 2.90 3.18 3.36 3.19 3.07 3.08 2.96 3.08 2.75 2.39 2.36 2.23 2.22 2.62 2.92 3.15 3.57 3.76 3.82 3.63 3.62 3.45 3.60 3.74 3.76 3.46 3.62 3.87 3.92
0.14 0.13 0.15 0.18 0.18 0.21 0.28 0.37 0.49 0.73 0.81 0.81 0.87 1.10 1.33 1.76 2.09 2.64 3.16 3.22 3.33 3.63 3.86 3.78 3.77 3.59 3.31 3.07 2.98 2.84 2.63 2.55 2.26 2.51 2.67 2.94 3.32 3.48 3.39 3.46 3.60 3.40 3.42 3.43 3.46 3.49 3.84 4.08 4.16
0.13 0.15 0.22 0.22 0.21 0.22 0.32 0.61 0.63 0.79 0.87 0.85 1.04 1.17 1.55 2.01 2.30 2.64 2.88 3.28 3.73 4.18 4.27 4.22 4.21 4.16 4.14 3.80 3.40 3.06 3.01 2.76 2.68 2.67 2.60 2.84 3.17 3.44 3.38 3.35 3.20 3.19 3.26 3.45 3.48 3.63 3.87 3.75 3.85
0.21 0.37 0.53 0.39 0.30 0.27 0.40 0.96 1.03 0.93 0.88 0.98 1.17 1.42 1.67 1.97 2.38 2.62 2.94 3.31 3.75 4.32 4.74 4.83 4.31 4.34 4.44 4.39 4.08 3.59 3.52 3.38 3.21 2.89 2.75 2.74 3.03 3.15 3.20 3.04 2.93 2.97 2.86 3.01 3.31 3.40 3.51 3.65 3.82
0.25 0.38 0.49 0.50 0.34 0.31 0.48 1.06 1.34 1.06 0.88 1.02 1.32 1.56 1.87 2.12 2.54 2.67 2.85 3.13 3.64 4.60 5.56 5.59 5.10 4.69 4.44 4.42 4.49 4.32 4.14 3.84 3.37 3.14 3.05 2.89 2.76 2.56 2.67 2.75 2.84 2.68 2.65 2.77 2.64 3.23 3.47 3.60 3.72
0.19 0.24 0.40 0.57 0.39 0.36 0.53 0.99 1.05 1.01 1.12 1.09 1.17 1.34 1.62 1.75 2.06 2.33 2.63 3.19 4.03 5.29 6.12 6.04 5.42 5.03 4.75 4.57 4.43 4.42 4.18 3.92 3.47 3.29 3.10 2.83 2.82 2.46 2.52 2.52 2.63 2.51 2.68 2.91 3.14 3.49 3.47 3.36 3.44
0.16 0.21 0.33 0.41 0.35 0.44 0.58 0.90 1.01 1.12 1.30 1.26 1.14 1.15 1.41 1.59 1.88 2.35 2.91 3.76 4.87 5.84 6.16 5.68 5.22 4.95 4.59 4.22 3.64 3.33 3.46 3.43 3.21 2.88 2.51 2.47 2.37 2.45 2.73 2.48 2.69 2.53 2.68 2.81 2.94 3.16 3.21 3.08 3.16
0.16 0.22 0.33 0.39 0.31 0.36 0.61 0.98 1.27 1.23 1.18 1.13 1.20 1.21 1.30 1.64 2.08 2.80 3.83 4.41 4.69 4.86 4.62 4.32 4.11 3.96 3.47 3.22 3.14 2.97 3.06 2.81 2.66 2.57 2.67 2.28 2.15 2.23 2.24 2.61 2.60 2.60 2.84 2.86 2.88 3.11 3.06 2.92 2.97
0.19 0.22 0.30 0.38 0.28 0.35 0.65 1.23 1.52 1.43 1.17 1.03 1.12 1.15 1.29 1.67 2.27 3.09 3.68 3.80 3.56 3.24 3.11 3.09 3.22 3.01 2.90 2.97 2.91 2.87 2.99 2.72 2.54 2.51 2.64 2.25 1.96 1.95 2.07 2.24 2.46 2.70 2.59 2.78 2.88 2.81 2.96 3.03 2.96
0.21 0.16 0.14 0.18 0.28 0.54 0.77 1.50 1.68 1.45 1.34 1.13 1.17 1.18 1.18 1.42 1.82 2.25 2.53 2.42 2.51 2.64 2.66 2.81 2.93 2.71 2.74 2.74 2.49 2.43 2.43 2.33 2.30 2.37 2.49 2.51 2.07 1.88 1.89 2.01 2.23 2.47 2.36 2.66 2.45 2.66 3.05 3.10 2.88
0.10 0.09 0.11 0.20 0.36 0.59 0.82 1.22 1.45 1.23 1.37 1.15 1.04 1.01 0.94 1.13 1.30 1.43 1.54 1.65 1.84 1.97 2.14 2.42 2.72 2.71 2.58 2.44 2.43 2.49 2.35 2.35 2.34 2.38 2.48 2.57 2.35 2.04 1.83 1.94 2.18 2.31 2.27 2.36 2.42 2.83 2.87 2.84 2.83
0.09 0.11 0.22 0.34 0.54 1.09 1.06 1.11 1.37 1.36 1.37 1.20 1.04 0.86 0.86 1.00 1.17 1.27 1.26 1.35 1.52 1.67 1.89 2.15 2.52 2.64 2.60 2.43 2.33 2.38 2.45 2.46 2.42 2.47 2.46 2.28 2.25 2.21 2.01 2.03 2.21 2.18 2.19 2.26 2.33 2.62 2.64 2.80 2.94
0.11 0.17 0.42 0.79 1.17 1.35 0.89 0.97 1.28 1.19 1.05 0.93 0.72 0.66 0.74 0.92 1.10 1.28 1.28 1.24 1.30 1.45 1.58 1.68 1.95 2.22 2.34 2.29 2.26 2.26 2.45 2.39 2.22 2.15 2.14 2.12 1.92 1.86 1.92 2.02 2.21 2.09 2.09 2.17 2.45 2.60 2.60 2.76 2.80
0.10 0.12 0.28 0.46 0.56 0.70 0.87 1.27 1.39 1.17 0.79 0.54 0.52 0.64 0.80 0.93 1.02 1.14 1.19 1.14 1.18 1.24 1.40 1.56 1.87 2.03 2.21 2.24 2.21 2.24 2.33 2.23 2.07 2.11 1.92 1.91 1.83 1.75 1.83 1.95 1.97 1.95 2.02 2.05 2.50 2.40 2.49 2.66 2.58
0.11 0.11 0.13 0.20 0.25 0.50 0.91 1.21 1.17 1.00 0.78 0.63 0.59 0.67 0.88 0.90 0.85 0.96 1.01 1.15 1.22 1.19 1.33 1.48 1.75 2.09 2.33 2.42 2.47 2.38 2.37 2.37 2.32 2.25 2.00 1.80 1.92 1.81 1.90 1.99 2.00 2.03 2.20 2.36 2.59 2.42 2.46 2.62 2.44
0.10 0.12 0.16 0.17 0.26 0.43 0.75 1.18 1.39 1.21 0.97 0.82 0.76 0.75 0.82 0.83 0.84 1.05 1.22 1.30 1.19 1.06 1.17 1.30 1.58 2.09 2.38 2.57 2.52 2.33 2.48 2.40 2.37 2.28 2.07 1.90 1.88 1.91 2.04 2.19 2.17 2.24 2.30 2.41 2.54 2.33 2.46 2.51 2.40
0.11 0.12 0.17 0.19 0.19 0.29 0.60 0.86 0.82 0.84 0.79 0.77 0.83 0.80 0.66 0.72 0.87 1.11 1.39 1.40 1.20 1.02 1.00 1.14 1.52 1.87 2.14 2.33 2.41 2.27 2.21 2.15 2.15 2.14 2.06 2.03 2.04 2.01 2.02 2.13 2.19 2.16 2.21 2.31 2.43 2.24 2.32 2.33 2.37
0.12 0.14 0.18 0.23 0.21 0.20 0.35 0.61 0.47 0.56 0.65 0.75 0.89 0.95 0.89 0.91 0.97 1.02 1.19 1.34 1.24 1.15 1.12 1.31 1.59 1.77 1.90 2.02 2.07 2.04 2.04 2.04 1.96 1.91 1.97 2.03 1.96 1.88 1.94 1.99 1.98 1.90 2.02 2.20 2.22 2.11 2.21 2.29 2.28